Glen Ullin Rgnl, Glen Ullin,, ND

12:30 AM MDT on April 28, 2017 (GMT -0600)
Glen Ullin Rgnl, Glen Ullin,

Weather History for KD57 - December, 2013

Change the Weather History Date:

Friday, December 6, 2013

  Actual Average (KDIK) Record (KDIK)
Temperature  
Mean Temperature -12 °F -  
Max Temperature -5 °F 30 °F 65 °F (1939)
Min Temperature -20 °F 9 °F -28 °F (1972)
Degree Days  
Heating Degree Days 78    
Moisture  
Dew Point -24 °F    
Average Humidity 60    
Maximum Humidity 64    
Minimum Humidity 54    
Precipitation  
Precipitation 0.00 in - - ()
Sea Level Pressure  
Sea Level Pressure 30.47 in    
Wind  
Wind Speed 8 mph (West)    
Max Wind Speed 21 mph    
Max Gust Speed 23 mph    
Visibility 10 miles    
Events      
Averages and records for this station are not official NWS values.
T = Trace of Precipitation, MM = Missing Value Source: NWS Daily Summary

Daily Weather History Graph

Daily Weather History Graph

Search for Another Location

Airport or City:

Trip Planner

Search our weather history database for the weather conditions in past years. The results will help you decide how hot, cold, wet, or windy it might be!

Date:

Astronomy

Dec. 06, 2013 Rise Set
Actual Time 7:17 AM MST 3:59 PM MST
Civil Twilight 6:42 AM MST 4:34 PM MST
Nautical Twilight 6:04 AM MST 5:12 PM MST
Astronomical Twilight 5:27 AM MST 5:49 PM MST
Moon 10:15 AM MST (12/6) 8:44 PM MST (12/6)
Length of Visible Light 9h 51m
Length of Day
8h 41m
Waxing Crescent, 20% of the Moon is Illuminated
Dec 6
Waxing Crescent
Dec 9
First Quarter
Dec 17
Full
Dec 25
Last Quarter
Jan 1
New

Hourly Weather History & Observations

Time (MST) Temp. Windchill Dew Point Humidity Pressure Visibility Wind Dir Wind Speed Gust Speed Precip Events Conditions
4:35 AM -18.4 °F -28.9 °F -27.4 °F 63% 30.40 in 10.0 mi NNW 3.5 mph - N/A   Clear
4:55 AM -18.4 °F - -27.4 °F 63% 30.41 in 10.0 mi Calm Calm - N/A   Clear
5:15 AM -18.4 °F - -27.4 °F 63% 30.41 in 10.0 mi Calm Calm - N/A   Clear
5:35 AM -20.2 °F -37.3 °F -29.2 °F 63% 30.41 in 10.0 mi WNW 6.9 mph - N/A   Clear
5:55 AM -20.2 °F - -29.2 °F 63% 30.42 in 10.0 mi Calm Calm - N/A   Clear
6:15 AM -18.4 °F -31.4 °F -27.4 °F 63% 30.42 in 10.0 mi WNW 4.6 mph - N/A   Clear
6:35 AM -18.4 °F -33.4 °F -27.4 °F 63% 30.43 in 10.0 mi WSW 5.8 mph - N/A   Clear
6:55 AM -20.2 °F -33.5 °F -29.2 °F 63% 30.44 in 10.0 mi West 4.6 mph - N/A   Clear
7:15 AM -18.4 °F - -27.4 °F 63% 30.44 in 10.0 mi Calm Calm - N/A   Clear
7:35 AM -20.2 °F -35.5 °F -29.2 °F 63% 30.44 in 10.0 mi West 5.8 mph - N/A   Clear
7:55 AM -18.4 °F -35.1 °F -27.4 °F 63% 30.45 in 10.0 mi West 6.9 mph - N/A   Clear
8:15 AM -16.6 °F -34.4 °F -25.6 °F 64% 30.45 in 10.0 mi West 8.1 mph - N/A   Clear
8:35 AM -14.8 °F -29.1 °F -25.6 °F 58% 30.46 in 10.0 mi WNW 5.8 mph - N/A   Clear
8:55 AM -14.8 °F -29.1 °F -23.8 °F 64% 30.47 in 10.0 mi West 5.8 mph - N/A   Clear
9:15 AM -13.0 °F -31.3 °F -23.8 °F 59% 30.47 in 10.0 mi WNW 9.2 mph 16.1 mph N/A   Clear
9:35 AM -11.2 °F -31.1 °F -22.0 °F 59% 30.48 in 10.0 mi WNW 11.5 mph - N/A   Clear
9:55 AM -11.2 °F -30.1 °F -22.0 °F 59% 30.49 in 10.0 mi WNW 10.4 mph - N/A   Clear
10:15 AM -11.2 °F -32.1 °F -22.0 °F 59% 30.49 in 10.0 mi WNW 12.7 mph - N/A   Clear
10:35 AM -11.2 °F -32.9 °F -22.0 °F 59% 30.49 in 10.0 mi WNW 13.8 mph - N/A   Clear
10:55 AM -9.4 °F -28.9 °F -20.2 °F 59% 30.48 in 10.0 mi NW 11.5 mph - N/A   Clear
11:15 AM -9.4 °F -27.9 °F -20.2 °F 59% 30.48 in 10.0 mi WNW 10.4 mph - N/A   Clear
11:35 AM -7.6 °F -29.8 °F -20.2 °F 54% 30.47 in 10.0 mi West 16.1 mph - N/A   Clear
11:55 AM -7.6 °F -29.1 °F -18.4 °F 59% 30.47 in 10.0 mi WNW 15.0 mph 23.0 mph N/A   Clear
12:15 PM -7.6 °F -29.1 °F -18.4 °F 59% 30.46 in 10.0 mi WNW 15.0 mph - N/A   Clear
12:35 PM -5.8 °F -29.4 °F -18.4 °F 55% 30.46 in 10.0 mi WNW 19.6 mph - N/A   Clear
12:55 PM -5.8 °F -29.9 °F -18.4 °F 55% 30.46 in 10.0 mi West 20.7 mph - N/A   Clear
1:15 PM -5.8 °F -26.8 °F -18.4 °F 55% 30.46 in 10.0 mi West 15.0 mph - N/A   Clear
1:35 PM -5.8 °F -28.2 °F -18.4 °F 55% 30.46 in 10.0 mi WNW 17.3 mph - N/A   Clear
1:55 PM -5.8 °F -26.8 °F -18.4 °F 55% 30.46 in 10.0 mi WNW 15.0 mph - N/A   Clear
2:15 PM -5.8 °F -28.2 °F -18.4 °F 55% 30.45 in 10.0 mi WNW 17.3 mph - N/A   Clear
2:35 PM -5.8 °F -26.0 °F -18.4 °F 55% 30.45 in 10.0 mi WNW 13.8 mph 20.7 mph N/A   Clear
2:55 PM -5.8 °F -24.4 °F -18.4 °F 55% 30.46 in 10.0 mi West 11.5 mph 18.4 mph N/A   Clear
3:15 PM -5.8 °F -26.8 °F -18.4 °F 55% 30.47 in 10.0 mi WNW 15.0 mph - N/A   Clear
3:35 PM -7.6 °F -28.3 °F -18.4 °F 59% 30.47 in 10.0 mi WNW 13.8 mph - N/A   Partly Cloudy
4:55 PM -11.2 °F -32.1 °F -20.2 °F 64% 30.48 in 10.0 mi West 12.7 mph 19.6 mph N/A   Clear
5:15 PM -13.0 °F -31.3 °F -23.8 °F 59% 30.48 in 10.0 mi West 9.2 mph - N/A   Clear
5:35 PM -13.0 °F -28.6 °F -23.8 °F 59% 30.49 in 10.0 mi West 6.9 mph - N/A   Clear
5:55 PM -13.0 °F -33.4 °F -23.8 °F 59% 30.48 in 10.0 mi West 11.5 mph - N/A   Clear
6:15 PM -13.0 °F -34.3 °F -23.8 °F 59% 30.49 in 10.0 mi West 12.7 mph - N/A   Clear
6:35 PM -14.8 °F -36.6 °F -23.8 °F 64% 30.49 in 10.0 mi West 12.7 mph - N/A   Clear
6:55 PM -14.8 °F -34.6 °F -23.8 °F 64% 30.50 in 10.0 mi West 10.4 mph - N/A   Clear
7:15 PM -14.8 °F -35.6 °F -23.8 °F 64% 30.50 in 10.0 mi West 11.5 mph - N/A   Clear
7:35 PM -14.8 °F -38.3 °F -23.8 °F 64% 30.50 in 10.0 mi West 15.0 mph - N/A   Clear
7:55 PM -14.8 °F -36.6 °F -25.6 °F 58% 30.51 in 10.0 mi WSW 12.7 mph - N/A   Clear
8:15 PM -16.6 °F -38.9 °F -25.6 °F 64% 30.51 in 10.0 mi WSW 12.7 mph - N/A   Clear
8:35 PM -16.6 °F -36.8 °F -25.6 °F 64% 30.51 in 10.0 mi WSW 10.4 mph - N/A   Clear
8:55 PM -16.6 °F -37.9 °F -27.4 °F 58% 30.51 in 10.0 mi WSW 11.5 mph - N/A   Clear
9:15 PM -18.4 °F -39.1 °F -27.4 °F 63% 30.52 in 10.0 mi West 10.4 mph - N/A   Clear
9:35 PM -18.4 °F -37.9 °F -27.4 °F 63% 30.52 in 10.0 mi West 9.2 mph - N/A   Clear
9:55 PM -18.4 °F -37.9 °F -27.4 °F 63% 30.51 in 10.0 mi West 9.2 mph - N/A   Clear
10:15 PM -18.4 °F -39.1 °F -27.4 °F 63% 30.52 in 10.0 mi West 10.4 mph - N/A   Clear
10:35 PM -16.6 °F -36.8 °F -27.4 °F 58% 30.52 in 10.0 mi WNW 10.4 mph - N/A   Clear
10:55 PM -16.6 °F -36.8 °F -27.4 °F 58% 30.52 in 10.0 mi WNW 10.4 mph - N/A   Clear
11:35 PM -20.2 °F -35.5 °F -29.2 °F 63% 30.53 in 10.0 mi West 5.8 mph - N/A   Clear
11:55 PM -20.2 °F -41.3 °F -29.2 °F 63% 30.52 in 10.0 mi West 10.4 mph - N/A   Clear